SCP
0 0 0 0 0 0 0 0 0 0 0 0 0 0 0 0 0 0 0 0 0 0 0 0 0 0 0 0 0 0 0 0 0 0 0 0 0 0
0 0 0 0 0 0 0 0 0 0 0 0 0 0 0 0 0 0 0 0 0 0 0 0 0 0 0 0 0 0 0 0 0 0 0 0 0 0
0 0 0 0 0 0 0 0 0 0 0 0 0 0 0 0 0 0 0 0 0 0 0 0 0 0 0 0 0 0 0 0 0 0 0 0 0 0
0 0 0 0 0 0 0 0 0 0 0 0 0 0 0 0 0 0 0 0 0 0 0 0 0 0 0 0 0 0 0 0 0 0 0 0 0 0
0 0 0 0 0 0 0 0 0 0 0 0 0 0 0 0 0 0 0 0 0 0 0 0 0 0 0 0 0 0 0 0 0 0 0 0 0 0
0 0 0 0 0 0 0 0 0 0 0 0 0 0 0 0 0 0 0 0 0 0 0 0 0 0 0 0 0 0 0 0 0 0 0 0 0 0
0 0 0 0 0 0 0 0 0 0 0 0 0 0 0 0 0 0 0 0 0 0 0 0 0 0 0 0 0 0 0 0 0 0 0 0 0 0
0 0 0 0 0 0 0 0 0 0 0 0 0 0 0 0 0 0 0 0 0 0 0 0 0 0 0 0 0 0 0 0 0 0 0 0 0 0
0 0 0 0 0 0 0 0 0 0 0 0 0 0 0 0 0 0 0 0 0 0 0 0 0 0 0 0 0 0 0 0 0 0 0 0 0 0
0 0 0 0 0 0 0 0 0 0 0 0 0 0 0 0 0 0 0 0 0 0 0 0 0 0 0 0 0 0 0 0 0 0 0 0 0 0
0 0 0 0 0 0 0 0 0 0 0 0 0 0 0 0 0 0 0 0 0 0 0 0 0 0 0 0 0 0 0 0 0 0 0 0 0 0
0 0 0 0 0 0 0 0 0 0 0 0 0 0 0 0 0 0 0 0 0 0 0 0 0 0 0 0 0 0 0 0 0 0 0 0 0 0
0 0 0 0 0 0 0 0 0 0 0 0 0 0 0 0 0 0 0 0 0 0 0 0 0 0 0 0 0 0 0 0 0 0 0 0 0 0
0 0 0 0 0 0 0 0 0 0 0 0 0 0 0 0 0 0 0 0 0 0 0 0 0 0 0 0 0 0 0 0 0 0 0 0 0 0
0 0 0 0 0 0 0 0 0 0 0 0 0 0 0 0 0 0 0 0 0 0 0 0 0 0 0 0 0 0 0 0 0 0 0 0 0 0
0 0 0 0 0 0 0 0 0 0 0 0 0 0 0 0 0 0 0 0 0 0 0 0 0 0 0 0 0 0 0 0 0 0 0 0 0 0
0 0 0 0 0 0 0 0 0 0 0 0 0 0 0 0 0 0 0 0 0 0 0 0 0 0 0 0 0 0 0 0 0 0 0 0 0 0
0 0 0 0 0 0 0 0 0 0 0 0 0 0 0 0 0 0 0 0 0 0 0 0 0 0 0 0 0 0 0 0 0 0 0 0 0 0
0 0 0 0 0 0 0 0 0 0 0 0 0 0 0 0 0 0 0 0 0 0 0 0 0 0 0 0 0 0 0 0 0 0 0 0 0 0
0 0 0 0 0 0 0 0 0 0 0 0 0 0 0 0 0 0 0 0 0 0 0 0 0 0 0 0 0 0 0 0 0 0 0 0 0 0
0 0 0 0 0 0 0 0 0 0 0 0 0 0 0 0 0 0 0 0 0 0 0 0 0 0 0 0 0 0 0 0 0 0 0 0 0 0
0 0 0 0 0 0 0 0 0 0 0 0 0 0 0 0 0 0 0 0 0 0 0 0 0 0 0 0 0 0 0 0 0 0 0 0 0 0
0 0 0 0 0 0 0 0 0 0 0 0 0 0 0 0 0 0 0 0 0 0 0 0 0 0 0 0 0 0 0 0 0 0 0 0 0 0
Wind_Speed
3 3 3 3 3 3 3 3 3 3 4 2 2 2 2 2 4 3 2 6 7 8 8 8 8 9 10 11 11 12 12 13 13 13 13 14 14 14
2 3 3 2 2 3 3 3 3 3 4 2 2 2 3 3 5 3 3 7 7 8 8 8 8 9 10 11 11 11 12 12 13 13 13 14 14 14
3 3 4 3 3 2 2 2 3 3 4 3 2 2 2 3 3 3 3 2 3 7 8 8 9 9 10 10 11 11 12 12 12 13 13 14 14 15
4 3 4 3 3 3 2 3 3 3 3 4 3 2 3 2 2 3 3 3 2 6 8 8 9 10 10 10 11 11 11 12 12 12 13 13 14 15
4 4 4 4 4 3 3 3 3 3 2 3 3 2 2 2 2 2 3 3 3 5 6 7 8 10 10 11 11 11 11 11 11 12 12 12 13 14
4 4 5 5 5 4 4 4 3 3 2 3 3 3 2 2 1 2 3 2 3 4 5 6 8 10 11 11 10 10 10 10 11 12 11 12 12 13
4 4 5 6 7 5 4 3 3 3 3 3 3 2 2 2 2 2 3 3 3 2 2 4 4 4 5 8 9 9 10 10 11 11 11 12 12 12
4 4 5 6 7 8 9 7 5 4 4 3 3 3 3 3 2 2 2 3 3 2 2 4 3 4 4 3 7 10 10 10 10 10 11 11 12 12
5 4 4 4 5 4 7 7 6 7 6 4 4 5 4 4 3 3 3 4 4 3 3 5 3 4 4 5 9 10 9 9 10 10 10 10 11 11
5 5 5 5 5 5 4 4 4 4 5 4 4 5 4 4 4 4 4 3 4 3 2 4 4 4 4 4 8 8 8 9 10 10 10 10 10 11
4 4 4 5 7 7 4 4 3 3 4 5 5 5 6 6 4 2 2 2 3 3 2 2 2 3 3 3 4 7 9 10 10 10 10 10 10 10
3 4 6 6 7 7 4 3 3 3 2 2 2 3 3 3 5 3 3 3 2 3 2 1 2 2 3 2 2 3 5 7 9 10 10 10 9 5
3 3 3 6 7 6 4 3 4 3 1 1 1 1 1 1 1 1 2 3 3 4 2 1 2 2 3 4 3 3 3 3 4 6 8 9 9 6
3 3 3 5 5 5 3 3 3 1 1 1 1 1 1 2 2 2 2 2 3 4 4 3 3 3 3 4 4 3 3 3 3 3 4 7 8 9
2 4 4 4 3 2 2 2 1 1 1 1 1 2 2 2 1 1 2 1 2 3 3 3 3 3 3 4 4 4 4 4 3 3 3 4 4 4
2 2 2 1 1 1 1 1 1 1 1 1 1 1 1 1 1 1 2 2 2 3 2 2 2 3 3 3 4 4 4 3 3 4 3 3 3 3
1 0 0 0 0 0 0 0 0 1 1 1 1 1 1 1 2 1 1 2 2 3 3 2 2 2 3 3 4 4 4 4 4 3 3 3 3 3
1 1 1 1 1 1 1 1 1 1 1 1 1 1 1 1 2 2 2 2 2 2 2 3 2 3 2 2 3 4 3 4 4 3 2 3 4 3
1 1 1 1 1 1 1 1 1 1 1 1 1 1 1 1 1 2 2 2 2 2 2 2 2 2 2 4 3 3 3 3 4 3 2 2 3 4
1 1 2 1 1 1 1 1 1 1 1 1 1 1 1 1 2 2 2 2 2 3 2 2 2 2 2 3 3 4 5 3 3 3 3 2 2 4
1 1 1 1 1 1 1 1 1 1 1 1 1 1 1 1 2 2 2 3 3 2 3 3 3 5 3 2 3 3 3 4 3 2 2 2 2 2
1 1 1 1 1 1 1 1 1 1 1 1 1 1 1 1 2 2 2 2 2 2 3 3 3 2 1 2 3 4 4 4 4 5 3 1 0 1
2 2 1 1 1 1 1 1 1 1 1 1 1 1 1 1 2 2 2 2 2 2 2 2 2 2 2 2 2 3 4 4 3 3 3 4 2 2
Wind_Direction
233 232 234 239 224 223 224 218 226 267 275 257 267 281 299 293 303 311 310 309 315 317 319 320 322 322 325 322 321 320 319 318 319 318 317 314 313 311
236 236 239 242 232 224 221 224 221 230 259 258 256 280 292 301 307 318 304 311 315 314 314 315 317 318 320 318 318 317 317 318 318 317 316 316 315 313
244 237 242 242 238 230 224 225 226 223 251 275 264 282 282 291 307 308 300 298 302 311 312 315 316 316 315 316 317 316 315 316 317 317 317 317 317 315
243 242 245 244 244 233 226 232 234 230 235 265 281 283 277 278 289 300 307 306 298 308 311 314 314 313 314 315 313 314 314 315 316 317 318 319 319 319
237 241 245 238 248 244 234 235 236 242 233 247 275 279 279 280 294 303 299 293 298 308 307 310 313 313 314 313 312 313 314 315 316 317 319 319 321 321
238 238 237 233 237 238 237 232 227 231 233 241 262 276 279 281 280 298 309 310 305 306 304 308 309 311 312 312 312 312 314 316 316 316 318 319 319 320
240 239 238 241 245 246 243 231 219 223 231 243 255 272 272 274 272 277 295 308 298 285 305 306 304 302 306 308 313 314 315 316 316 316 317 317 318 318
239 242 242 245 248 259 260 253 237 227 228 233 254 254 261 260 261 269 285 302 297 292 304 299 295 290 293 291 304 312 316 317 317 319 320 318 317 319
230 235 249 251 253 244 254 261 259 252 241 233 238 244 249 244 241 255 261 271 275 276 291 289 287 286 288 296 304 309 315 318 320 320 320 319 320 321
232 231 238 248 245 242 235 240 242 245 245 239 233 241 247 237 229 240 250 276 279 271 258 277 282 283 293 295 303 310 322 326 325 324 325 325 324 323
243 237 238 243 253 253 236 239 253 259 262 259 256 260 267 269 261 245 246 265 285 278 250 252 279 295 289 285 302 317 323 323 323 326 328 330 332 330
248 246 250 251 254 253 227 221 243 257 261 281 284 280 270 262 264 237 223 243 273 275 248 255 283 315 304 283 287 308 314 318 324 328 329 330 334 332
248 247 248 259 265 264 254 231 242 258 235 229 255 270 276 269 278 262 233 232 249 256 247 253 272 278 272 294 294 290 296 307 317 320 324 329 332 332
244 245 246 260 267 268 264 255 259 270 187 210 241 269 276 282 289 289 277 267 257 255 251 246 253 257 276 287 290 299 306 305 307 309 311 321 324 326
247 260 270 273 270 261 260 255 240 183 189 225 248 268 272 276 291 307 313 306 306 288 275 263 254 263 267 276 288 293 301 301 301 301 308 311 313 318
255 265 289 295 302 294 269 251 222 203 208 228 252 261 281 282 285 294 299 310 313 309 306 289 269 262 273 276 277 287 290 290 305 305 303 303 308 309
229 193 116 64 241 260 265 259 215 195 212 222 234 259 280 289 292 295 293 298 294 297 313 319 307 288 266 266 276 280 286 287 287 299 305 304 302 307
211 186 208 231 239 241 251 277 256 232 239 237 237 245 272 280 294 303 300 292 295 297 302 306 315 321 313 289 252 266 282 287 293 296 293 299 311 320
195 208 222 237 245 241 235 249 260 264 257 239 245 252 266 274 276 283 294 299 300 297 296 297 305 309 311 308 302 278 282 295 300 301 299 292 298 308
209 231 236 233 235 232 234 247 257 270 253 244 247 249 255 262 267 274 281 288 294 300 303 305 299 284 273 283 292 302 301 293 294 302 310 305 292 298
246 244 239 231 229 233 237 240 237 239 249 248 255 257 260 263 271 279 284 287 294 292 293 296 291 298 288 285 291 303 311 315 315 301 304 311 321 340
252 256 254 243 232 233 236 224 223 235 244 248 253 257 260 262 269 276 278 281 286 289 292 297 308 314 305 293 298 308 321 331 339 344 345 329 267 305
253 252 246 236 237 237 230 223 224 230 235 242 255 263 261 266 277 277 277 282 287 291 299 304 316 319 312 300 306 317 328 335 342 357 0 360 343 305